Regional Weather Roundup
Issued by NWS Green Bay, WI

Home | Current Version | Previous Version | Text Only | Print | Product List | Glossary On
Versions: 1 2 3 4 5 6 7 8 9 10 11 12 13 14 15 16 17 18 19 20 21 22 23 24 25 26 27 28 29 30 31 32 33 34 35 36 37 38 39 40 41 42 43 44 45 46 47 48 49 50
000
ASUS43 KGRB 071411
RWRGRB

NORTH-CENTRAL AND NORTHEAST WISCONSIN REGIONAL WEATHER ROUNDUP
NATIONAL WEATHER SERVICE GREEN BAY WI
800 AM CST SUN FEB 07 2016

WIZ005-009-010>012-018-019-071500-
NORTH CENTRAL WISCONSIN

CITY           SKY/WX    TMP DP  RH WIND       PRES   REMARKS
IRONWOOD       CLOUDY    32  28  86 SW7       29.48F
MANITOWISH WTR CLOUDY    29  29  99 SW9       29.52F
ARBOR VITAE    CLOUDY    32  30  92 S9        29.53F FOG
EAGLE RIVER    CLOUDY    29  28  96 S6        29.54F FOG
LAND O LAKES   CLOUDY    30  28  94 S6        29.53F FOG
RHINELANDER    CLOUDY    30  27  88 SW9       29.55F
PHILLIPS       CLOUDY    30  28  93 SW9G16    29.54S
ANTIGO         CLOUDY    30  28  94 SW12      29.59F
TOMAHAWK       CLOUDY    29  28  93 S3        29.57F FOG
MERRILL        CLOUDY    31  29  92 SW9       29.59F
$$

WIZ013-073-071500-
NORTHEAST WISCONSIN

CITY           SKY/WX    TMP DP  RH WIND       PRES   REMARKS
IRON MOUNTAIN  SNOW      29  26  89 S6        29.58F VSB 1/2
MARINETTE      CLOUDY    36  28  75 SW10      29.65F
OCONTO         PTCLDY    35  31  84 SW7       29.65F
$$

WIZ017-030-035>037-045-071500-
CENTRAL WISCONSIN

CITY           SKY/WX    TMP DP  RH WIND       PRES   REMARKS
MEDFORD        MOCLDY    29  27  94 SW12      29.57F
WAUSAU         CLOUDY    32  28  85 SE5       29.59F
MOSINEE        MOCLDY    30  28  93 S8        29.62F
MARSHFIELD     CLEAR     29  24  82 SW8       29.60F
WISC RAPIDS    CLEAR     31  26  82 SW9       29.65F
STEVENS POINT  MOCLDY    29  27  91 SW8       29.64F
WAUPACA        CLOUDY    34  29  82 S6        29.66F
SHAWANO        MOCLDY    35  30  83 SW3       29.65F
CLINTONVILLE   MOCLDY    32  30  93 SW7       29.66S
WAUTOMA        PTCLDY    34  30  85 S6        29.67F
$$

WIZ038-039-048-051-071500-
FOX VALLEY

CITY           SKY/WX    TMP DP  RH WIND       PRES   REMARKS
NWS GREEN BAY  CLOUDY    36  30  79 S10       29.66F
APPLETON       MOCLDY    34  28  80 S10       29.65F
OSHKOSH        CLOUDY    36  29  75 SW10      29.68F
FOND DU LAC    MOCLDY    37  29  72 SW16      29.68F
$$

WIZ022-050-052-071500-
EAST CENTRAL WISCONSIN

CITY           SKY/WX    TMP DP  RH WIND       PRES   REMARKS
EPHRAIM        CLOUDY    34  31  90 S7        29.66F
STURGEON BAY   MOCLDY    34  28  80 S8        29.69F
MANITOWOC      CLOUDY    35  30  82 S7        29.70F
SHEBOYGAN      CLOUDY    37  29  72 SW12      29.70F
$$

LMZ563-521-522-541>543-071500-
LAKESHORE

STATION/POSITION TIME  TEMP    WIND        PRES    VSBY  WAVE
                       AIR SEA DIR/SP/G                  HT/PER
                 (UTC) (F)     (DEG/KT/KT) (MB)    (MI)  (FT/S)
SHEBOYGAN LKSHOR 1400   38     200/  9/ 11 1006.6F
KEWAUNEE LKSHORE 1300   35     190/  9/ 12 1005.2F
ALGOMA MARINA    1311          220/ 19/ 21   N/A
CHAMBERS ISLAND  1300   35     160/  6/ 12 1005.4F
MENOMINEE LKSHOR 1300   34     180/  7     1003.9F
$$



USA.gov is the U.S. government's official web portal to all federal, state and local government web resources and services.